GW5197 Weather Reports


time (UTC)temp
C
wind
direction
speed
KPH
gust
KPH
rain 1hr
cm
rain 24hr
cm
rain mn
cm
humidity
%
barometer
mb
20260504192158 23 232 3.2 6.4 0.00 0.00 0.00 40 1015.0
20260504191700 23 98 1.6 4.8 0.00 0.00 0.00 41 1015.0
20260504191159 23 222 1.6 3.2 0.00 0.00 0.00 38 1016.0
20260504190658 23 296 6.4 9.7 0.00 0.00 0.00 39 1016.0
20260504190159 23 302 4.8 8.0 0.00 0.00 0.00 40 1016.0
20260504185658 23 301 3.2 8.0 0.00 0.00 0.00 42 1016.0
20260504185157 23 205 3.2 4.8 0.00 0.00 0.00 42 1016.0
20260504184700 23 297 4.8 8.0 0.00 0.00 0.00 42 1016.0
20260504184159 24 255 1.6 3.2 0.00 0.00 0.00 42 1016.0
20260504183659 23 58 3.2 6.4 0.00 0.00 0.00 43 1016.0
20260504183159 23 35 6.4 9.7 0.00 0.00 0.00 42 1016.0
20260504182659 23 3 3.2 6.4 0.00 0.00 0.00 42 1016.0
20260504182159 23 288 3.2 4.8 0.00 0.00 0.00 43 1016.0
20260504181659 23 266 6.4 9.7 0.00 0.00 0.00 42 1016.0
20260504181159 23 22 3.2 4.8 0.00 0.00 0.00 43 1016.0
20260504180659 23 295 1.6 3.2 0.00 0.00 0.00 44 1016.0
20260504180159 23 342 1.6 1.6 0.00 0.00 0.00 44 1016.0
20260504175658 23 25 3.2 6.4 0.00 0.00 0.00 42 1016.0
20260504175159 23 105 3.2 4.8 0.00 0.00 0.00 44 1016.0
20260504174659 23 195 0.0 1.6 0.00 0.00 0.00 41 1017.0
20260504174200 23 94 1.6 4.8 0.00 0.00 0.00 44 1017.0
20260504173659 23 52 3.2 4.8 0.00 0.00 0.00 46 1017.0
20260504173159 23 41 4.8 6.4 0.00 0.00 0.00 43 1017.0
20260504172701 23 22 3.2 6.4 0.00 0.00 0.00 45 1017.0
20260504172159 22 359 3.2 6.4 0.00 0.00 0.00 44 1017.0
20260504171659 22 59 3.2 6.4 0.00 0.00 0.00 46 1017.0
20260504171159 21 223 1.6 3.2 0.00 0.00 0.00 46 1017.0
20260504170657 22 225 4.8 6.4 0.00 0.00 0.00 45 1017.0
20260504170200 22 273 1.6 4.8 0.00 0.00 0.00 46 1017.0
20260504160159 21 299 1.6 6.4 0.00 0.00 0.00 45 1018.0
20260504150700 20 44 6.4 12.9 0.00 0.00 0.00 48 1018.0
20260504150200 19 328 3.2 3.2 0.00 0.00 0.00 49 1018.0
20260504141200 17 270 3.2 4.8 0.00 0.00 0.00 57 1018.0
20260504140658 17 305 3.2 6.4 0.00 0.00 0.00 60 1018.0
20260504140159 16 314 1.6 3.2 0.00 0.00 0.00 62 1018.0
20260504130700 12 63 1.6 3.2 0.00 0.00 0.00 72 1018.0
20260504130158 11 69 3.2 3.2 0.00 0.00 0.00 77 1018.0
20260504120159 7 80 1.6 1.6 0.00 0.00 0.00 100 1018.0
20260504110659 6 94 1.6 1.6 0.00 0.00 0.00 99 1018.0
20260504110159 6 172 1.6 3.2 0.00 0.00 0.00 99 1018.0
20260504100159 7 81 1.6 3.2 0.00 0.00 0.00 94 1018.0
20260504081659 8 206 1.6 3.2 0.00 0.00 0.00 81 1018.0
20260504081159 8 216 1.6 3.2 0.00 0.00 0.00 81 1018.0
20260504080659 8 213 0.0 3.2 0.00 0.00 0.00 83 1018.0
20260504080158 8 203 1.6 3.2 0.00 0.00 0.00 82 1018.0
20260504070158 8 85 1.6 3.2 0.00 0.00 0.00 85 1018.0
20260504060158 10 102 3.2 6.4 0.00 0.00 0.00 75 1018.0
20260504050657 11 65 1.6 4.8 0.00 0.00 0.00 70 1019.0
20260504050159 11 64 1.6 4.8 0.00 0.00 0.00 70 1019.0
20260504045659 11 350 3.2 8.0 0.00 0.00 0.00 69 1019.0
20260504045158 11 347 3.2 8.0 0.00 0.00 0.00 68 1019.0
20260504044658 11 333 3.2 6.4 0.00 0.00 0.00 68 1018.0
20260504044203 12 102 1.6 4.8 0.00 0.00 0.00 69 1019.0
20260504043657 12 61 1.6 4.8 0.00 0.00 0.00 68 1018.0
20260504043157 12 236 3.2 6.4 0.00 0.00 0.00 66 1018.0
20260504042658 12 217 3.2 4.8 0.00 0.00 0.00 66 1019.0
20260504042159 12 16 0.0 3.2 0.00 0.00 0.00 65 1019.0
20260504041659 12 219 1.6 6.4 0.00 0.00 0.00 65 1019.0
20260504041157 12 235 3.2 6.4 0.00 0.00 0.00 66 1019.0
20260504040657 12 58 1.6 4.8 0.00 0.00 0.00 66 1019.0
20260504040157 12 49 1.6 4.8 0.00 0.00 0.00 66 1019.0
20260504035657 12 103 1.6 6.4 0.00 0.00 0.00 63 1019.0
20260504035157 12 262 1.6 4.8 0.00 0.00 0.00 64 1019.0
20260504034657 12 102 1.6 3.2 0.00 0.00 0.00 65 1019.0
20260504034158 12 216 1.6 4.8 0.00 0.00 0.00 67 1019.0
20260504033657 12 87 3.2 4.8 0.00 0.00 0.00 66 1019.0
20260504033157 12 66 1.6 3.2 0.00 0.00 0.00 70 1019.0
20260504032658 12 72 1.6 3.2 0.00 0.00 0.00 69 1019.0
20260504032158 12 65 3.2 4.8 0.00 0.00 0.00 67 1019.0
20260504031657 12 68 1.6 4.8 0.00 0.00 0.00 64 1019.0
20260504031200 12 105 1.6 4.8 0.00 0.00 0.00 65 1019.0
20260504030227 12 23 1.6 4.8 0.00 0.00 0.00 67 1019.0
20260504025657 12 39 1.6 4.8 0.00 0.00 0.00 65 1019.0
20260504025157 12 205 1.6 4.8 0.00 0.00 0.00 65 1019.0
20260504024658 12 68 1.6 3.2 0.00 0.00 0.00 65 1019.0
20260504024157 12 125 0.0 1.6 0.00 0.00 0.00 63 1019.0
20260504023657 13 84 1.6 3.2 0.00 0.00 0.00 62 1019.0
20260504023159 13 153 1.6 3.2 0.00 0.00 0.00 62 1018.0
20260504022659 13 70 1.6 3.2 0.00 0.00 0.00 63 1018.0
20260504022158 13 63 0.0 3.2 0.00 0.00 0.00 63 1018.0
20260504021658 13 84 3.2 3.2 0.00 0.00 0.00 59 1018.0
20260504021158 13 104 0.0 1.6 0.00 0.00 0.00 60 1018.0
20260504020657 13 85 1.6 1.6 0.00 0.00 0.00 60 1018.0
20260504020157 13 201 0.0 1.6 0.00 0.00 0.00 58 1018.0
20260504015657 13 258 0.0 3.2 0.00 0.00 0.00 58 1018.0
20260504015159 13 69 0.0 0.0 0.00 0.00 0.00 58 1018.0
20260504014657 14 62 0.0 1.6 0.00 0.00 0.00 58 1018.0
20260504014157 14 114 0.0 1.6 0.00 0.00 0.00 56 1018.0
20260504013657 14 161 0.0 1.6 0.00 0.00 0.00 55 1018.0
20260504013158 14 162 0.0 1.6 0.00 0.00 0.00 54 1018.0
20260504012657 15 185 0.0 1.6 0.00 0.00 0.00 53 1018.0
20260504012159 15 92 0.0 3.2 0.00 0.00 0.00 53 1018.0
20260504011658 15 346 0.0 1.6 0.00 0.00 0.00 53 1018.0
20260504011158 15 26 0.0 1.6 0.00 0.00 0.00 53 1018.0
20260504010657 15 63 0.0 1.6 0.00 0.00 0.00 52 1018.0
20260504010157 15 270 0.0 1.6 0.00 0.00 0.00 53 1018.0
20260504005659 16 23 0.0 1.6 0.00 0.00 0.00 51 1018.0
20260504005157 16 59 0.0 1.6 0.00 0.00 0.00 51 1018.0
20260504004657 16 63 0.0 1.6 0.00 0.00 0.00 50 1018.0
20260504004157 16 70 0.0 1.6 0.00 0.00 0.00 49 1017.0
20260504003657 16 48 0.0 1.6 0.00 0.00 0.00 47 1017.0
20260504003158 17 7 0.0 3.2 0.00 0.00 0.00 47 1017.0
20260504002658 17 56 0.0 0.0 0.00 0.00 0.00 47 1017.0
20260504002157 17 21 0.0 1.6 0.00 0.00 0.00 46 1017.0
20260504001658 17 357 0.0 1.6 0.00 0.00 0.00 46 1017.0
20260504001157 17 23 0.0 3.2 0.00 0.00 0.00 45 1017.0
20260504000657 17 339 1.6 1.6 0.00 0.00 0.00 44 1017.0
20260504000157 18 12 1.6 3.2 0.00 0.00 0.00 44 1017.0
20260503235657 18 358 1.6 1.6 0.00 0.00 0.00 43 1017.0
20260503235157 18 1 1.6 4.8 0.00 0.00 0.00 44 1017.0
20260503234657 18 353 1.6 3.2 0.00 0.00 0.00 43 1017.0
20260503234158 18 356 1.6 1.6 0.00 0.00 0.00 43 1017.0
20260503233658 18 322 1.6 3.2 0.00 0.00 0.00 43 1017.0
20260503233157 18 42 1.6 3.2 0.00 0.00 0.00 43 1017.0
20260503232657 18 348 1.6 3.2 0.00 0.00 0.00 41 1017.0
20260503232157 18 356 1.6 3.2 0.00 0.00 0.00 41 1017.0
20260503231657 18 23 3.2 6.4 0.00 0.00 0.00 40 1017.0
20260503231157 18 30 3.2 11.3 0.00 0.00 0.00 40 1017.0
20260503230657 19 343 1.6 3.2 0.00 0.00 0.00 39 1017.0
20260503230158 19 34 3.2 6.4 0.00 0.00 0.00 39 1017.0
20260503225657 19 2 3.2 3.2 0.00 0.00 0.00 39 1017.0
20260503225158 19 357 4.8 6.4 0.00 0.00 0.00 39 1017.0
20260503224657 19 25 6.4 9.7 0.00 0.00 0.00 38 1017.0
20260503224158 19 16 6.4 14.5 0.00 0.00 0.00 38 1017.0
20260503223658 19 315 1.6 4.8 0.00 0.00 0.00 39 1017.0
20260503223157 19 291 3.2 4.8 0.00 0.00 0.00 38 1017.0
20260503222657 19 35 6.4 8.0 0.00 0.00 0.00 37 1017.0
20260503222157 19 315 1.6 4.8 0.00 0.00 0.00 37 1017.0
20260503221657 19 34 3.2 8.0 0.00 0.00 0.00 37 1017.0
20260503221158 19 300 4.8 6.4 0.00 0.00 0.00 39 1017.0
20260503220658 19 10 3.2 6.4 0.00 0.00 0.00 38 1017.0
20260503220158 19 169 0.0 3.2 0.00 0.00 0.00 40 1017.0
20260503215657 19 359 3.2 8.0 0.00 0.00 0.00 38 1017.0
20260503215157 19 20 8.0 9.7 0.00 0.00 0.00 38 1017.0
20260503214657 19 42 4.8 6.4 0.00 0.00 0.00 39 1017.0
20260503214158 19 349 3.2 4.8 0.00 0.00 0.00 39 1017.0
20260503213657 20 4 3.2 4.8 0.00 0.00 0.00 38 1017.0
20260503213157 20 318 3.2 6.4 0.00 0.00 0.00 37 1017.0
20260503212657 20 288 4.8 8.0 0.00 0.00 0.00 39 1017.0
20260503212158 20 307 4.8 6.4 0.00 0.00 0.00 39 1018.0
20260503211657 19 281 3.2 8.0 0.00 0.00 0.00 40 1017.0
20260503211157 19 106 0.0 1.6 0.00 0.00 0.00 40 1018.0
20260503210657 19 10 11.3 16.1 0.00 0.00 0.00 40 1018.0
20260503210157 19 65 4.8 8.0 0.00 0.00 0.00 39 1018.0
20260503205657 19 17 9.7 14.5 0.00 0.00 0.00 39 1018.0
20260503205157 20 5 8.0 12.9 0.00 0.00 0.00 39 1018.0
20260503204657 20 22 4.8 9.7 0.00 0.00 0.00 38 1018.0
20260503204157 19 52 3.2 6.4 0.00 0.00 0.00 41 1018.0
20260503203657 19 309 4.8 6.4 0.00 0.00 0.00 41 1018.0
20260503203158 19 68 3.2 6.4 0.00 0.00 0.00 40 1018.0
20260503202657 19 334 1.6 3.2 0.00 0.00 0.00 41 1018.0
20260503202157 19 342 6.4 9.7 0.00 0.00 0.00 40 1018.0
20260503201658 19 28 4.8 8.0 0.00 0.00 0.00 39 1018.0
20260503201157 19 294 3.2 6.4 0.00 0.00 0.00 39 1018.0
20260503200657 19 45 3.2 3.2 0.00 0.00 0.00 40 1018.0
20260503200200 19 53 1.6 6.4 0.00 0.00 0.00 40 1018.0
20260503195657 19 29 3.2 4.8 0.00 0.00 0.00 41 1018.0
20260503195157 19 19 8.0 11.3 0.00 0.00 0.00 41 1019.0
20260503194658 19 24 6.4 12.9 0.00 0.00 0.00 41 1019.0
20260503194157 19 284 3.2 6.4 0.00 0.00 0.00 39 1019.0
20260503193658 19 277 3.2 6.4 0.00 0.00 0.00 40 1019.0
20260503193158 19 57 1.6 4.8 0.00 0.00 0.00 40 1019.0
20260503192658 18 308 3.2 6.4 0.00 0.00 0.00 41 1019.0